Lumberton, NJ

6:37 AM EDT on September 27, 2016 (GMT -0400)
South Jersey Regional

Weather History for KVAY - March, 2013

Change the Weather History Date:

Saturday, March 30, 2013

  Actual Average (KWRI) Record (KWRI)
Temperature  
Mean Temperature 44 °F -  
Max Temperature 57 °F 56 °F 89 °F (1998)
Min Temperature 30 °F 36 °F 26 °F (2008)
Degree Days  
Heating Degree Days 22    
Moisture  
Dew Point 26 °F    
Average Humidity 52    
Maximum Humidity 88    
Minimum Humidity 25    
Precipitation  
Precipitation 0.00 in - - ()
Sea Level Pressure  
Sea Level Pressure 30.15 in    
Wind  
Wind Speed 2 mph (West)    
Max Wind Speed 9 mph    
Max Gust Speed 20 mph    
Visibility 10 miles    
Events      
Averages and records for this station are not official NWS values.
T = Trace of Precipitation, MM = Missing Value Source: NWS Daily Summary

Daily Weather History Graph

Daily Weather History Graph

Search for Another Location

Airport or City:

Trip Planner

Search our weather history database for the weather conditions in past years. The results will help you decide how hot, cold, wet, or windy it might be!

Date:

Astronomy

Mar. 30, 2013 Rise Set
Actual Time 6:46 AM EDT 7:21 PM EDT
Civil Twilight 6:19 AM EDT 7:49 PM EDT
Nautical Twilight 5:46 AM EDT 8:21 PM EDT
Astronomical Twilight 5:13 AM EDT 8:54 PM EDT
Moon 11:25 PM EDT (3/30) 8:39 AM EDT (3/30)
Length of Visible Light 13h 30m
Length of Day
12h 35m
Waning Gibbous, 86% of the Moon is Illuminated
Mar 30
Waning Gibbous
Apr 3
Last Quarter
Apr 10
New
Apr 18
First Quarter
Apr 25
Full

Hourly Weather History & Observations

Time (EDT) Temp. Windchill Dew Point Humidity Pressure Visibility Wind Dir Wind Speed Gust Speed Precip Events Conditions
12:54 AM 44.1 °F - 28.9 °F 55% 30.17 in 10.0 mi Calm Calm - N/A   Mostly Cloudy
1:54 AM 37.0 °F - 30.0 °F 76% 30.17 in 10.0 mi Calm Calm - N/A   Clear
2:54 AM 33.1 °F - 28.9 °F 85% 30.17 in 10.0 mi Calm Calm - N/A   Clear
3:54 AM 34.0 °F - 28.0 °F 79% 30.16 in 10.0 mi Calm Calm - N/A   Clear
4:54 AM 30.9 °F - 27.0 °F 85% 30.17 in 10.0 mi Calm Calm - N/A   Clear
5:54 AM 30.0 °F - 27.0 °F 88% 30.17 in 10.0 mi Calm Calm - N/A   Clear
6:54 AM 30.0 °F - 27.0 °F 88% 30.18 in 10.0 mi Calm Calm - N/A   Clear
7:54 AM 35.1 °F - 30.0 °F 82% 30.20 in 10.0 mi Calm Calm - N/A   Clear
8:54 AM 45.0 °F - 30.0 °F 56% 30.20 in 10.0 mi Calm Calm - N/A   Clear
9:54 AM 48.9 °F - 28.9 °F 46% 30.20 in 10.0 mi NW 6.9 mph - N/A   Clear
10:54 AM 52.0 °F - 27.0 °F 38% 30.19 in 10.0 mi NNW 4.6 mph - N/A   Clear
11:54 AM 53.1 °F - 24.1 °F 32% 30.19 in 10.0 mi Variable 5.8 mph 19.6 mph N/A   Partly Cloudy
12:54 PM 54.0 °F - 24.1 °F 31% 30.17 in 10.0 mi West 9.2 mph - N/A   Partly Cloudy
1:54 PM 55.0 °F - 23.0 °F 29% 30.14 in 10.0 mi West 8.1 mph - N/A   Clear
2:54 PM 55.9 °F - 21.9 °F 27% 30.12 in 10.0 mi Variable 6.9 mph 16.1 mph N/A   Clear
3:54 PM 57.9 °F - 24.1 °F 27% 30.10 in 10.0 mi NNW 6.9 mph - N/A   Partly Cloudy
4:54 PM 55.9 °F - 19.9 °F 25% 30.10 in 10.0 mi WSW 5.8 mph - N/A   Partly Cloudy
5:54 PM 57.0 °F - 21.9 °F 26% 30.10 in 10.0 mi Variable 4.6 mph - N/A   Clear
6:54 PM 55.9 °F - 19.9 °F 25% 30.11 in 10.0 mi West 4.6 mph - N/A   Clear
7:54 PM 48.9 °F - 23.0 °F 36% 30.12 in 10.0 mi Calm Calm - N/A   Clear
8:54 PM 43.0 °F - 27.0 °F 53% 30.13 in 10.0 mi Calm Calm - N/A   Clear
9:54 PM 39.9 °F 37.8 °F 27.0 °F 60% 30.14 in 10.0 mi SW 3.5 mph - N/A   Clear
10:54 PM 44.1 °F 41.5 °F 27.0 °F 51% 30.15 in 10.0 mi SSW 4.6 mph - N/A   Clear
11:54 PM 43.0 °F 40.3 °F 28.0 °F 56% 30.15 in 10.0 mi SSW 4.6 mph - N/A   Clear